Location: London
(51.5166°N, 0.1046°W)
Time: 13:06:02
(UTC+01:00)

ISS - Visible Passes

Search period start: 01 October 2016 00:00
Search period end: 11 October 2016 00:00
Orbit: 400 x 410 km, 51.6° (Epoch: 01 October)

Date Brightness Start Highest point End Pass type
(mag) Time Alt. Az. Time Alt. Az. Time Alt. Az.
01 Oct -2.4 20:06:57 10° SSW 20:09:50 29° SSE 20:10:02 29° SE visible
02 Oct -1.7 19:15:27 10° SSW 19:17:54 20° SE 19:20:12 11° E visible
02 Oct -2.1 20:50:44 10° WSW 20:52:52 37° SW 20:52:52 37° SW visible
03 Oct -3.0 19:58:44 10° SW 20:01:54 48° SSE 20:02:55 34° ESE visible
03 Oct -0.3 21:35:01 10° W 21:35:34 14° W 21:35:34 14° W visible
04 Oct -2.4 19:06:52 10° SW 19:09:51 34° SSE 19:12:51 10° E visible
04 Oct -2.8 20:42:53 10° W 20:45:31 55° WSW 20:45:31 55° WSW visible
05 Oct -3.4 19:50:45 10° WSW 19:54:00 72° SSE 19:55:24 31° E visible
05 Oct -0.4 21:27:13 10° W 21:28:04 17° W 21:28:04 17° W visible
06 Oct -3.0 18:58:40 10° WSW 19:01:52 54° SSE 19:05:04 10° E visible
06 Oct -3.0 20:35:01 10° W 20:37:54 66° W 20:37:54 66° W visible
07 Oct -3.4 19:42:50 10° W 19:46:06 90° SW 19:47:42 28° E visible
07 Oct -0.6 21:19:20 10° W 21:20:21 18° W 21:20:21 18° W visible
08 Oct -3.3 18:50:39 10° WSW 18:53:54 78° SSE 18:57:10 10° E visible
08 Oct -3.2 20:27:08 10° W 20:30:07 73° W 20:30:07 73° W visible
09 Oct -3.4 19:34:54 10° W 19:38:11 86° N 19:39:52 26° E visible
09 Oct -0.6 21:11:25 10° W 21:12:31 19° W 21:12:31 19° W visible
10 Oct -3.2 20:19:10 10° W 20:22:17 68° SW 20:22:17 68° SW visible
